Hourly Data Report for October 24, 2012

All times are specified in Local Standard Time (LST). Add 1 hour to adjust for Daylight Saving Time where and when it is observed.

KITCHENER/WATERLOO
ONTARIO

43°27'39.000" N
80°22'43.000" W
321.60 m
6144239
71368
YKF

Download Data

Hourly Data (October 2012)
Hourly Data Report for October 24, 2012
Temp Definition
°C
Dew Point Temp Definition
°C
Rel Hum Definition
%
Wind Dir Definition
10's deg

Wind Spd Definition
km/h
Visibility Definition
km
Stn Press Definition
kPa
Hmdx Definition


Wind Chill Definition


Weather Definition


TIME
00:00 Legend Double Dagger 7.9 7.5 97 8 18 14.5 98.06     LegendNANA
01:00 Legend Double Dagger 7.8 7.5 98 10 18 6.4 98.07     LegendNANA
02:00 Legend Double Dagger 7.8 7.5 98 9 15 4.0 98.07     LegendNANA
03:00 Legend Double Dagger 7.8 7.5 98 9 11 8.1 98.05     LegendNANA
04:00 Legend Double Dagger 7.9 7.5 97 8 13 8.1 98.05     LegendNANA
05:00 Legend Double Dagger 8.0 7.6 97 9 13 4.8 98.06     LegendNANA
06:00 Legend Double Dagger 7.9 7.5 97 10 13 6.4 98.08     LegendNANA
07:00 Legend Double Dagger 7.9 7.5 97 9 8 8.1 98.12     LegendNANA
08:00 Legend Double Dagger 8.1 7.8 98 10 13 2.8 98.14     LegendNANA
09:00 Legend Double Dagger 8.3 8.2 99 11 15 1.2 98.10     LegendNANA
10:00 Legend Double Dagger 8.9 8.8 99 11 13 2.0 98.11     LegendNANA
11:00 Legend Double Dagger 9.2 9.1 99 10 11 2.0 98.11     LegendNANA
12:00 Legend Double Dagger 9.9 9.8 99 9 13 3.2 98.06     LegendNANA
13:00 Legend Double Dagger 10.9 10.3 96 10 11 4.8 98.02     LegendNANA
14:00 Legend Double Dagger 11.8 10.7 93 13 11 9.7 97.99     LegendNANA
15:00 Legend Double Dagger 12.2 11.0 92 9 9 11.3 97.99     LegendNANA
16:00 Legend Double Dagger 12.1 11.1 93 10 11 9.7 97.98     LegendNANA
17:00 Legend Double Dagger 10.7 10.3 97 8 13 3.2 98.02     LegendNANA
18:00 Legend Double Dagger 9.9 9.6 98 8 11 1.6 98.04     LegendNANA
19:00 Legend Double Dagger 9.7 9.6 99 8 13 2.4 98.07     LegendNANA
20:00 Legend Double Dagger 9.7 9.6 99 10 11 4.0 98.08     LegendNANA
21:00 Legend Double Dagger 9.9 9.8 99 10 11 4.0 98.09     LegendNANA
22:00 Legend Double Dagger 10.1 10.0 99 9 11 1.6 98.07     LegendNANA
23:00 Legend Double Dagger 10.4 10.3 99 9 9 0.8 98.05     LegendNANA

Notes on Data Quality.

Legend

  • E = Estimated
  • M = Missing
  • NA = Not Available
  • ‡ = Partner data that is not subject to review by the National Climate Archives
Date modified: